Location: Cincinnati Observatory Center
(39.1389°N, 84.4225°W)
Time: 05:01:53

Hubble Space Telescope - Visible Passes

Search period start: 27 November 2015 00:00
Search period end: 07 December 2015 00:00
Orbit: 540 x 544 km, 28.5° (Epoch: 25 November)

Date Brightness Start Highest point End Pass type
(mag) Time Alt. Az. Time Alt. Az. Time Alt. Az.
04 Dec 3.8 06:47:48 10° S 06:48:44 11° SSE 06:49:43 10° SSE visible
05 Dec 3.5 06:37:36 10° S 06:39:22 13° SSE 06:41:12 10° SE visible
06 Dec 3.4 06:27:46 10° SSW 06:30:01 14° SSE 06:32:17 10° SE visible
